Weather reports worldwide

Advertisment
Brownsville/Int., United States of America (72250): temperature & dewpoint: 11.10.2018 16:00:00 - 17.10.2018 16:00:00 (CDT)Brownsville/Int., United States of America (72250): wind speed & gusts: 11.10.2018 16:00:00 - 17.10.2018 16:00:00 (CDT)Brownsville/Int., United States of America (72250): wind direction: 11.10.2018 16:00:00 - 17.10.2018 16:00:00 (CDT)Brownsville/Int., United States of America (72250): reduced air pressure: 11.10.2018 16:00:00 - 17.10.2018 16:00:00 (CDT)Brownsville/Int., United States of America (72250): visibility: 11.10.2018 16:00:00 - 17.10.2018 16:00:00 (CDT)Brownsville/Int., United States of America (72250): precipitation: 11.10.2018 16:00:00 - 17.10.2018 16:00:00 (CDT)
Date & Time tt [°C] td [°C] ff [km/h] ff [kn] fx [km/h] fx [kn] dd ppp [hPa] vv [km] rr [mm]
17.10.2018 16:00:00 18,3 13,3 24 13 - - NNW 1020,9 16 -
17.10.2018 15:00:00 18,3 13,3 24 13 - - NW 1020,5 16 -
17.10.2018 14:00:00 17,2 12,8 22 12 - - NW 1021,7 16 -
17.10.2018 13:00:00 16,1 12,2 24 13 - - NW 1022,6 16 0,0
17.10.2018 12:00:00 16,7 12,8 24 13 - - NNW 1023,4 16 -
17.10.2018 11:00:00 15,6 12,2 28 15 - - NNW 1024,0 16 -
17.10.2018 10:00:00 14,4 12,2 29 16 - - NW 1023,5 16 -
17.10.2018 09:00:00 13,3 12,2 26 14 - - NNW 1023,3 16 -
17.10.2018 08:00:00 13,3 12,2 22 12 - - NW 1022,8 16 -
17.10.2018 07:00:00 13,9 11,7 22 12 - - NNW 1021,8 16 0,0
17.10.2018 06:00:00 13,3 11,7 24 13 - - NW 1021,0 16 -
17.10.2018 05:00:00 13,3 11,7 26 14 - - NNW 1020,8 16 -
17.10.2018 04:00:00 13,3 11,7 24 13 - - NW 1020,8 16 -
17.10.2018 03:00:00 13,3 11,7 22 12 - - NW 1021,1 16 -
17.10.2018 02:00:00 12,8 12,2 18 10 - - NW 1021,5 16 -
17.10.2018 01:00:00 12,8 12,2 16 9 - - NW 1022,0 15 0,0
17.10.2018 00:00:00 - - - - - - - - - -
16.10.2018 23:00:00 13,3 12,2 22 12 - - NW 1021,8 16 -
16.10.2018 22:00:00 13,9 11,7 21 11 - - NW 1021,8 16 -
16.10.2018 21:00:00 13,9 11,7 24 13 - - NW 1021,2 16 -
16.10.2018 20:00:00 14,4 11,7 21 11 - - NNW 1020,3 16 -
16.10.2018 19:00:00 15,0 11,7 24 13 - - NNW 1019,4 16 0,0
16.10.2018 18:00:00 15,6 11,1 24 13 - - NNW 1018,9 16 -
16.10.2018 17:00:00 16,7 11,7 22 12 - - NNW 1018,8 16 -
16.10.2018 16:00:00 16,7 11,7 22 12 - - NW 1018,6 16 -
16.10.2018 15:00:00 16,7 11,1 28 15 - - NNW 1018,3 16 -
16.10.2018 14:00:00 15,6 11,1 24 13 - - NNW 1019,6 16 -
16.10.2018 13:00:00 15,6 10,6 28 15 - - NW 1020,6 16 0,0
16.10.2018 12:00:00 13,9 10,0 24 13 - - NNW 1020,6 16 -
16.10.2018 11:00:00 13,3 10,0 31 17 - - NW 1020,6 16 -
16.10.2018 10:00:00 12,8 9,4 26 14 - - NW 1021,3 16 -
16.10.2018 09:00:00 12,2 9,4 24 13 - - NW 1020,2 16 -
16.10.2018 08:00:00 11,7 9,4 28 15 - - NW 1019,9 16 -
16.10.2018 07:00:00 11,7 9,4 24 13 - - NW 1019,8 16 0,0
16.10.2018 06:00:00 11,7 9,4 28 15 48 26 NW 1019,5 16 -
16.10.2018 05:00:00 11,7 10,6 26 14 50 27 NNW 1019,1 16 -
16.10.2018 04:00:00 12,2 11,1 29 16 - - NW 1019,1 16 -
16.10.2018 03:00:00 12,8 11,1 24 13 - - NW 1019,2 16 -
16.10.2018 02:00:00 12,2 11,1 31 17 52 28 NW 1019,6 16 -
16.10.2018 01:00:00 12,2 11,1 31 17 52 28 NNW 1019,5 16 0,0
16.10.2018 00:00:00 12,2 11,1 29 16 55 30 NW 1019,8 16 -
15.10.2018 23:00:00 12,8 11,1 26 14 55 30 NW 1019,2 16 -
15.10.2018 22:00:00 12,2 11,1 24 13 48 26 NW 1018,5 16 -
15.10.2018 21:00:00 12,8 11,1 22 12 52 28 NNW 1018,2 16 -
15.10.2018 20:00:00 13,3 11,7 31 17 52 28 NW 1017,3 16 -
15.10.2018 19:00:00 13,9 12,2 31 17 48 26 NW 1015,9 16 -
15.10.2018 18:00:00 15,0 13,9 28 15 54 29 NNW 1015,0 16 -
15.10.2018 17:00:00 16,1 15,0 35 19 54 29 NW 1014,7 16 -
15.10.2018 16:00:00 17,2 16,1 29 16 54 29 NNW 1014,1 16 0,0
15.10.2018 15:00:00 19,4 17,2 37 20 61 33 NW 1013,4 16 0,0
15.10.2018 14:00:00 32,8 25,6 22 12 - - SSE 1011,5 16 -
15.10.2018 13:00:00 32,8 26,1 28 15 - - SSE 1011,8 16 0,0
15.10.2018 12:00:00 32,2 25,6 26 14 - - SSE 1012,4 16 -
15.10.2018 11:00:00 31,7 26,1 24 13 - - SSE 1012,5 16 -
15.10.2018 10:00:00 30,0 26,7 21 11 - - SSE 1011,7 16 -
15.10.2018 09:00:00 29,4 27,2 15 8 - - SE 1011,5 16 -
15.10.2018 08:00:00 27,8 26,7 9 5 - - SE 1011,3 16 -
15.10.2018 07:00:00 27,8 26,7 11 6 - - SE 1010,4 16 0,0
15.10.2018 06:00:00 27,8 26,7 9 5 - - SE 1010,5 16 -
15.10.2018 05:00:00 27,8 26,7 11 6 - - ESE 1009,8 16 -
15.10.2018 04:00:00 27,8 26,7 9 5 - - SE 1010,1 16 -
15.10.2018 03:00:00 27,8 26,7 11 6 - - SE 1010,0 16 -
15.10.2018 02:00:00 28,3 26,7 13 7 - - ESE 1010,0 16 -
15.10.2018 01:00:00 28,3 26,7 13 7 - - ESE 1010,5 16 0,0
15.10.2018 00:00:00 28,3 26,7 15 8 - - ESE 1010,8 16 -
14.10.2018 23:00:00 28,9 27,2 11 6 - - ESE 1010,7 16 -
14.10.2018 22:00:00 28,9 27,2 15 8 - - ESE 1010,2 16 -
14.10.2018 21:00:00 28,9 26,7 11 6 - - E 1009,5 16 -
14.10.2018 20:00:00 28,9 26,7 15 8 - - ESE 1008,8 16 -
14.10.2018 19:00:00 30,0 26,1 18 10 - - SE 1008,1 16 0,0
14.10.2018 18:00:00 31,1 26,1 22 12 - - ESE 1007,9 16 -
14.10.2018 17:00:00 31,7 25,6 22 12 - - SE 1007,7 16 -
14.10.2018 16:00:00 32,8 25,6 28 15 - - SE 1007,7 16 -
14.10.2018 15:00:00 33,3 25,6 29 16 - - SSE 1007,9 16 -
14.10.2018 14:00:00 32,2 25,6 28 15 - - SSE 1008,6 16 -
14.10.2018 13:00:00 32,2 25,6 28 15 - - SSE 1009,1 16 0,0
14.10.2018 12:00:00 31,7 25,0 26 14 - - SE 1009,9 16 -
14.10.2018 11:00:00 31,1 25,0 28 15 - - SE 1010,2 16 -
14.10.2018 10:00:00 30,6 25,6 26 14 - - SE 1010,0 16 -
14.10.2018 09:00:00 29,4 25,6 21 11 - - SE 1009,4 16 -
14.10.2018 08:00:00 27,8 25,0 18 10 - - SE 1008,8 16 -
14.10.2018 07:00:00 27,8 25,0 18 10 - - SE 1008,5 16 0,0
14.10.2018 06:00:00 27,8 25,0 22 12 - - SSE 1008,2 16 -
14.10.2018 05:00:00 27,8 25,6 16 9 - - SE 1008,0 16 -
14.10.2018 04:00:00 28,3 25,6 21 11 - - SE 1008,3 16 -
14.10.2018 03:00:00 28,3 25,6 16 9 - - SE 1008,8 16 -
14.10.2018 02:00:00 28,3 26,1 16 9 - - SSE 1008,7 16 -
14.10.2018 01:00:00 28,3 26,1 16 9 - - SSE 1008,3 16 0,0
14.10.2018 00:00:00 28,3 26,1 26 14 - - SSE 1007,9 16 -
13.10.2018 23:00:00 28,3 26,1 21 11 - - SSE 1008,6 16 -
13.10.2018 22:00:00 28,3 26,1 16 9 - - SE 1008,5 16 -
13.10.2018 21:00:00 28,3 26,1 16 9 - - SSE 1008,2 16 -
13.10.2018 20:00:00 28,9 25,6 16 9 - - SE 1007,6 16 -
13.10.2018 19:00:00 30,0 25,0 28 15 - - SSE 1007,2 16 0,0
13.10.2018 18:00:00 31,1 25,0 28 15 - - SSE 1006,9 16 -
13.10.2018 17:00:00 32,2 24,4 37 20 54 29 SSE 1006,9 16 -
13.10.2018 16:00:00 33,3 24,4 41 22 57 31 S 1006,7 16 -
13.10.2018 15:00:00 33,3 24,4 39 21 55 30 SSE 1007,4 16 -
13.10.2018 14:00:00 33,3 24,4 35 19 55 30 S 1008,3 16 -
13.10.2018 13:00:00 33,9 23,9 41 22 54 29 SSE 1009,2 16 0,0
13.10.2018 12:00:00 33,3 25,0 44 24 55 30 SSE 1009,6 16 -
13.10.2018 11:00:00 31,7 25,0 39 21 57 31 SSE 1010,0 16 -
13.10.2018 10:00:00 31,1 26,1 28 15 48 26 SSE 1009,8 16 -
13.10.2018 09:00:00 29,4 26,1 21 11 - - SSE 1009,4 16 -
13.10.2018 08:00:00 27,8 26,1 15 8 - - SSE 1009,2 16 -
13.10.2018 07:00:00 27,8 26,1 16 9 - - SSE 1009,3 16 -
13.10.2018 06:00:00 27,8 25,6 16 9 - - SSE 1009,1 16 -
13.10.2018 05:00:00 27,8 25,6 16 9 - - SSE 1009,1 16 -
13.10.2018 04:00:00 27,2 25,6 9 5 - - SSE 1009,5 16 -
13.10.2018 03:00:00 27,8 25,6 15 8 - - SSE 1009,9 16 -
13.10.2018 02:00:00 28,3 25,6 18 10 - - SE 1009,8 16 -
13.10.2018 01:00:00 28,3 25,6 18 10 - - SE 1009,8 16 0,0
13.10.2018 00:00:00 27,8 25,6 13 7 - - SE 1010,4 16 -
12.10.2018 23:00:00 27,8 25,6 11 6 - - SE 1010,6 16 -
12.10.2018 22:00:00 28,3 25,0 13 7 - - SE 1010,4 16 -
12.10.2018 21:00:00 28,3 25,6 16 9 - - SE 1010,0 16 -
12.10.2018 20:00:00 28,3 25,6 16 9 - - SE 1009,4 16 -
12.10.2018 19:00:00 29,4 25,0 18 10 - - SE 1009,3 16 0,0
12.10.2018 18:00:00 30,6 25,0 16 9 - - SE 1009,4 16 -
12.10.2018 17:00:00 31,7 25,0 28 15 - - SE 1009,5 16 -
12.10.2018 16:00:00 31,1 25,0 28 15 - - SE 1010,0 16 -
12.10.2018 15:00:00 32,2 25,0 28 15 - - SSE 1010,7 16 -
12.10.2018 14:00:00 31,7 25,0 29 16 - - SSE 1011,8 16 -
12.10.2018 13:00:00 32,8 25,0 26 14 - - SE 1012,7 16 0,0
12.10.2018 12:00:00 31,7 25,0 24 13 - - SE 1013,4 16 -
12.10.2018 11:00:00 30,6 25,0 22 12 - - SE 1013,5 16 -
12.10.2018 10:00:00 30,0 24,4 24 13 - - SE 1013,8 16 -
12.10.2018 09:00:00 28,9 24,4 13 7 - - ESE 1013,5 16 -
12.10.2018 08:00:00 26,7 23,9 11 6 - - ESE 1013,1 16 -
12.10.2018 07:00:00 26,1 23,9 5 3 - - E 1012,8 16 0,0
12.10.2018 06:00:00 26,1 23,9 9 5 - - E 1012,6 16 -
12.10.2018 05:00:00 26,7 23,9 9 5 - - ESE 1012,8 16 -
12.10.2018 04:00:00 26,7 23,9 11 6 - - E 1013,1 16 -
12.10.2018 03:00:00 26,7 23,9 13 7 - - E 1013,3 16 -
12.10.2018 02:00:00 27,2 24,4 11 6 - - E 1013,8 10 -
12.10.2018 01:00:00 27,2 24,4 9 5 - - E 1013,9 16 -
12.10.2018 00:00:00 27,8 25,0 15 8 - - E 1013,9 16 -
11.10.2018 23:00:00 27,8 25,6 13 7 - - E 1013,7 16 -
11.10.2018 22:00:00 27,2 25,6 18 10 - - E 1013,2 16 -
11.10.2018 21:00:00 27,2 25,6 15 8 - - E 1013,2 16 0,0
11.10.2018 20:00:00 28,3 25,6 13 7 - - ENE 1013,3 16 0,0
11.10.2018 19:00:00 28,9 24,4 16 9 - - E 1012,4 16 -
11.10.2018 18:00:00 29,4 24,4 18 10 - - E 1012,0 16 -
11.10.2018 17:00:00 29,4 25,6 22 12 - - E 1012,4 16 0,5
11.10.2018 16:00:00 28,9 24,4 18 10 - - E 1012,8 16 -

tt = temperature
td = dewpoint
ff = wind speed
fx = gusts
dd = wind direction
ppp = reduced air pressure
vv = visibility
rr = precipitation

Next stations